WZZ97AX LPMA-EPKT

Flight info

Callsign WZZ97AX
Flight time N/A
Altitude 32000
Route DEGUN DCT NARTA/N0452F340 DCT ESUTI DCT MAZUK DCT RINOR DCT TOSDI DCT ZMR DCT NEA N976 PPN DCT TOPTU DCT LALGO DCT BOGRO DCT TOU DCT GAI/N0376F180 T544 MEN/N0428F270 DCT NINUN/N0435F280 DCT LATAM DCT AMIKO/N0375F180 G53 LTP/N0450F350 DCT SOPLO/N0449F340 DCT OMASI DCT KINNI N871 BERSU DCT DITON T103 NUNRI/N0450F350 DCT KPT DCT BETOS DCT DEGIN DCT BEPAS DCT NELPA DCT BODAL DCT BAVOK
Aircraft A321/M-SDE3FGHIRWY/LB1

Departure

Time 2026-05-01 14:16
Airport Cristiano Ronaldo International Airport (LPMA)

Arrival

Time N/A
Airport Katowice Wojciech Korfanty International Airport (EPKT)
Time Latitude Longitude Altitude Speed Heading
2026-05-01 13:53 32.69415 -16.77588 158 ft 0 kts 139°
2026-05-01 14:05 32.69426 -16.77599 158 ft 3 kts 134°
2026-05-01 14:06 32.69438 -16.77617 158 ft 3 kts 120°
2026-05-01 14:06 32.69446 -16.77638 158 ft 3 kts 97°
2026-05-01 14:06 32.69445 -16.77660 158 ft 3 kts 58°
2026-05-01 14:06 32.69442 -16.77666 158 ft 0 kts 49°
2026-05-01 14:09 32.69455 -16.77650 158 ft 5 kts 45°
2026-05-01 14:09 32.69481 -16.77619 158 ft 6 kts 45°
2026-05-01 14:09 32.69520 -16.77571 158 ft 8 kts 47°
2026-05-01 14:10 32.69559 -16.77521 158 ft 8 kts 46°
2026-05-01 14:10 32.69598 -16.77474 158 ft 8 kts 46°
2026-05-01 14:10 32.69635 -16.77428 158 ft 8 kts 46°
2026-05-01 14:10 32.69670 -16.77384 158 ft 7 kts 46°
2026-05-01 14:11 32.69704 -16.77343 158 ft 7 kts 46°
2026-05-01 14:11 32.69780 -16.77250 158 ft 11 kts 45°
2026-05-01 14:11 32.69835 -16.77187 158 ft 11 kts 33°
2026-05-01 14:12 32.69907 -16.77173 158 ft 10 kts
2026-05-01 14:12 32.69977 -16.77172 158 ft 10 kts
2026-05-01 14:12 32.70040 -16.77148 158 ft 9 kts 39°
2026-05-01 14:12 32.70087 -16.77095 158 ft 9 kts 45°
2026-05-01 14:13 32.70136 -16.77036 158 ft 12 kts 45°
2026-05-01 14:13 32.70178 -16.76986 158 ft 13 kts 45°
2026-05-01 14:13 32.70265 -16.76883 158 ft 14 kts 45°
2026-05-01 14:13 32.70334 -16.76802 158 ft 14 kts 45°
2026-05-01 14:14 32.70401 -16.76723 158 ft 14 kts 44°
2026-05-01 14:14 32.70468 -16.76647 158 ft 13 kts 44°
2026-05-01 14:14 32.70534 -16.76571 158 ft 13 kts 44°
2026-05-01 14:14 32.70602 -16.76503 158 ft 13 kts 28°
2026-05-01 14:15 32.70683 -16.76475 158 ft 12 kts 41°
2026-05-01 14:15 32.70669 -16.76420 158 ft 9 kts 193°
2026-05-01 14:15 32.70650 -16.76435 158 ft 2 kts 224°
2026-05-01 14:15 32.70528 -16.76577 158 ft 59 kts 224°
2026-05-01 14:16 32.70066 -16.77120 158 ft 126 kts 224°
2026-05-01 14:16 32.69307 -16.77982 294 ft 163 kts 223°
2026-05-01 14:16 32.68497 -16.78850 1037 ft 159 kts 212°
2026-05-01 14:16 32.67432 -16.79203 1523 ft 168 kts 182°
2026-05-01 14:17 32.66199 -16.78995 1712 ft 186 kts 171°
2026-05-01 14:17 32.64889 -16.78692 2065 ft 198 kts 172°
2026-05-01 14:17 32.63499 -16.78367 2408 ft 210 kts 171°
2026-05-01 14:17 32.61991 -16.78031 2584 ft 232 kts 173°
2026-05-01 14:18 32.60346 -16.77706 2923 ft 248 kts 171°
2026-05-01 14:18 32.58609 -16.77363 3405 ft 256 kts 173°
2026-05-01 14:18 32.56844 -16.77020 4049 ft 258 kts 171°
2026-05-01 14:18 32.55694 -16.76629 4449 ft 264 kts 157°
2026-05-01 14:19 32.53820 -16.74640 5121 ft 278 kts 125°
2026-05-01 14:19 32.53033 -16.72561 5914 ft 277 kts 106°
2026-05-01 14:19 32.53026 -16.70270 6418 ft 288 kts 73°
2026-05-01 14:19 32.54020 -16.68214 6984 ft 290 kts 45°
2026-05-01 14:20 32.55502 -16.66585 7611 ft 292 kts 40°
2026-05-01 14:20 32.58657 -16.63452 8724 ft 299 kts 40°
2026-05-01 14:20 32.60214 -16.61799 9290 ft 302 kts 42°
2026-05-01 14:21 32.61761 -16.60094 9848 ft 305 kts 43°
2026-05-01 14:21 32.63325 -16.58375 10393 ft 309 kts 42°
2026-05-01 14:21 32.64918 -16.56658 10716 ft 320 kts 40°
2026-05-01 14:22 32.68394 -16.52944 11104 ft 352 kts 40°
2026-05-01 14:22 32.70247 -16.50953 11298 ft 367 kts 40°
2026-05-01 14:22 32.72173 -16.48878 11489 ft 381 kts 40°
2026-05-01 14:22 32.74168 -16.46725 11673 ft 394 kts 40°
2026-05-01 14:23 32.76229 -16.44502 11928 ft 404 kts 40°
2026-05-01 14:23 32.78318 -16.42245 12428 ft 407 kts 40°
2026-05-01 14:23 32.80417 -16.39976 12922 ft 409 kts 40°
2026-05-01 14:23 32.82527 -16.37694 13400 ft 412 kts 40°
2026-05-01 14:24 32.84653 -16.35399 13885 ft 414 kts 40°
2026-05-01 14:24 32.86789 -16.33088 14349 ft 416 kts 41°
2026-05-01 14:24 32.88938 -16.30762 14800 ft 419 kts 41°
2026-05-01 14:24 32.91097 -16.28418 15234 ft 422 kts 40°
2026-05-01 14:25 32.93289 -16.26038 15476 ft 431 kts 40°
2026-05-01 14:25 32.95526 -16.23614 15745 ft 438 kts 40°
2026-05-01 14:25 32.97783 -16.21166 16192 ft 440 kts 40°
2026-05-01 14:25 33.00050 -16.18705 16615 ft 442 kts 40°
2026-05-01 14:26 33.02326 -16.16229 17025 ft 445 kts 40°
2026-05-01 14:26 33.06920 -16.11225 17817 ft 450 kts 40°
2026-05-01 14:26 33.09236 -16.08700 18184 ft 453 kts 40°
2026-05-01 14:27 33.11565 -16.06161 18561 ft 455 kts 40°
2026-05-01 14:27 33.13907 -16.03607 18928 ft 457 kts 40°
2026-05-01 14:27 33.16260 -16.01039 19291 ft 460 kts 40°
2026-05-01 14:28 33.21003 -15.95855 19992 ft 464 kts 40°
2026-05-01 14:28 33.23387 -15.93244 20335 ft 467 kts 40°
2026-05-01 14:28 33.25787 -15.90613 20657 ft 469 kts 40°
2026-05-01 14:28 33.28197 -15.87968 20981 ft 472 kts 40°
2026-05-01 14:29 33.30623 -15.85307 21258 ft 475 kts 39°
2026-05-01 14:29 33.33077 -15.82618 21443 ft 481 kts 39°
2026-05-01 14:30 33.40524 -15.74420 22319 ft 488 kts 39°
2026-05-01 14:30 33.43026 -15.71663 22615 ft 490 kts 39°
2026-05-01 14:30 33.45541 -15.68893 22903 ft 492 kts 39°
2026-05-01 14:31 33.50596 -15.63313 23432 ft 497 kts 39°
2026-05-01 14:31 33.53139 -15.60503 23703 ft 498 kts 39°
2026-05-01 14:31 33.55692 -15.57678 23966 ft 500 kts 39°
2026-05-01 14:31 33.58254 -15.54840 24226 ft 502 kts 39°
2026-05-01 14:32 33.60789 -15.52031 24477 ft 504 kts 40°
2026-05-01 14:32 33.62527 -15.50103 24649 ft 505 kts 40°
2026-05-01 14:32 33.65951 -15.46307 24974 ft 507 kts 40°
2026-05-01 14:32 33.68543 -15.43428 25219 ft 508 kts 40°
2026-05-01 14:33 33.71139 -15.40541 25460 ft 510 kts 40°
2026-05-01 14:33 33.73745 -15.37639 25697 ft 511 kts 40°
2026-05-01 14:33 33.76357 -15.34729 25929 ft 513 kts 40°
2026-05-01 14:33 33.78981 -15.31806 26151 ft 514 kts 40°
2026-05-01 14:34 33.81606 -15.28877 26386 ft 516 kts 40°
2026-05-01 14:34 33.84236 -15.25939 26613 ft 517 kts 40°
2026-05-01 14:34 33.86871 -15.22993 26815 ft 518 kts 40°
2026-05-01 14:34 33.89511 -15.20038 27016 ft 519 kts 40°
2026-05-01 14:35 33.92158 -15.17072 27227 ft 520 kts 39°
2026-05-01 14:35 33.94809 -15.14102 27462 ft 520 kts 39°
2026-05-01 14:35 33.97454 -15.11136 27735 ft 519 kts 39°
2026-05-01 14:35 34.00091 -15.08174 27988 ft 518 kts 39°
2026-05-01 14:36 34.01836 -15.06212 28143 ft 518 kts 39°
2026-05-01 14:36 34.07140 -15.00248 28431 ft 521 kts 39°
2026-05-01 14:36 34.09782 -14.97271 28748 ft 519 kts 39°
2026-05-01 14:37 34.12418 -14.94298 28962 ft 519 kts 39°
2026-05-01 14:37 34.15052 -14.91326 29194 ft 518 kts 39°
2026-05-01 14:37 34.17686 -14.88353 29416 ft 517 kts 39°
2026-05-01 14:37 34.20312 -14.85384 29645 ft 517 kts 39°
2026-05-01 14:38 34.22926 -14.82421 29879 ft 516 kts 39°
2026-05-01 14:38 34.25543 -14.79457 30098 ft 515 kts 39°
2026-05-01 14:38 34.28156 -14.76497 30307 ft 515 kts 39°
2026-05-01 14:38 34.30765 -14.73541 30512 ft 514 kts 39°
2026-05-01 14:39 34.33371 -14.70583 30716 ft 514 kts 39°
2026-05-01 14:39 34.35973 -14.67624 30946 ft 512 kts 39°
2026-05-01 14:39 34.38568 -14.64669 31138 ft 512 kts 39°
2026-05-01 14:39 34.41159 -14.61717 31316 ft 511 kts 39°
2026-05-01 14:40 34.43748 -14.58768 31491 ft 511 kts 39°
2026-05-01 14:40 34.46336 -14.55818 31670 ft 511 kts 39°
2026-05-01 14:40 34.48921 -14.52867 31842 ft 510 kts 39°
2026-05-01 14:40 34.51501 -14.49919 32015 ft 510 kts 39°
2026-05-01 14:41 34.54084 -14.46966 32101 ft 512 kts 39°
2026-05-01 14:41 34.59318 -14.40977 32087 ft 520 kts 39°
2026-05-01 14:41 34.61938 -14.37968 32335 ft 518 kts 39°
2026-05-01 14:42 34.64553 -14.34962 32480 ft 518 kts 39°
2026-05-01 14:42 34.67171 -14.31952 32644 ft 517 kts 39°
2026-05-01 14:42 34.69782 -14.28951 32798 ft 517 kts 39°
2026-05-01 14:42 34.72393 -14.25948 32947 ft 517 kts 39°
2026-05-01 14:43 34.74971 -14.22979 33058 ft 517 kts 39°
2026-05-01 14:43 34.77614 -14.19932 33202 ft 517 kts 39°
2026-05-01 14:43 34.80187 -14.16962 33334 ft 516 kts 39°
2026-05-01 14:43 34.82825 -14.13913 33470 ft 516 kts 39°
2026-05-01 14:44 34.85395 -14.10941 33606 ft 516 kts 39°
2026-05-01 14:44 34.90589 -14.04928 33863 ft 515 kts 39°
2026-05-01 14:44 34.93186 -14.01917 33985 ft 515 kts 39°
2026-05-01 14:45 35.00953 -13.92894 34170 ft 513 kts 40°
2026-05-01 14:46 35.06113 -13.86885 34167 ft 513 kts 40°
2026-05-01 14:46 35.13848 -13.77862 34166 ft 513 kts 40°
2026-05-01 14:47 35.19007 -13.71827 34165 ft 513 kts 40°
2026-05-01 14:48 35.26738 -13.62763 34126 ft 513 kts 40°
2026-05-01 14:48 35.34467 -13.53679 34111 ft 513 kts 40°
2026-05-01 14:49 35.44759 -13.41539 34144 ft 513 kts 40°
2026-05-01 14:50 35.55030 -13.29379 34165 ft 513 kts 40°
2026-05-01 14:51 35.62725 -13.20239 34171 ft 513 kts 40°
2026-05-01 14:52 35.70414 -13.11085 34182 ft 513 kts 40°
2026-05-01 14:53 35.78093 -13.01907 34192 ft 513 kts 40°
2026-05-01 14:53 35.83213 -12.95780 34192 ft 513 kts 40°
2026-05-01 14:54 35.88324 -12.89646 34195 ft 512 kts 40°
2026-05-01 14:54 35.93423 -12.83518 34198 ft 511 kts 40°
2026-05-01 14:55 35.98476 -12.77437 34161 ft 511 kts 40°
2026-05-01 14:55 36.03558 -12.71304 34117 ft 511 kts 40°
2026-05-01 14:56 36.08636 -12.65166 34111 ft 510 kts 40°
2026-05-01 14:56 36.13712 -12.59019 34109 ft 511 kts 40°
2026-05-01 14:57 36.18787 -12.52861 34108 ft 512 kts 40°
2026-05-01 14:57 36.26424 -12.43573 34120 ft 513 kts 40°
2026-05-01 14:58 36.31514 -12.37366 34178 ft 513 kts 40°
2026-05-01 14:58 36.36598 -12.31155 34202 ft 513 kts 40°
2026-05-01 14:59 36.41679 -12.24938 34208 ft 512 kts 40°
2026-05-01 14:59 36.46749 -12.18719 34202 ft 512 kts 40°
2026-05-01 15:00 36.54349 -12.09377 34149 ft 513 kts 40°
2026-05-01 15:01 36.59417 -12.03131 34114 ft 513 kts 40°
2026-05-01 15:01 36.64486 -11.96870 34111 ft 513 kts 40°
2026-05-01 15:02 36.69547 -11.90609 34155 ft 512 kts 40°
2026-05-01 15:02 36.74603 -11.84344 34154 ft 513 kts 40°
2026-05-01 15:03 36.79657 -11.78065 34140 ft 513 kts 40°
2026-05-01 15:03 36.84712 -11.71774 34118 ft 513 kts 40°
2026-05-01 15:04 36.89770 -11.65468 34105 ft 514 kts 41°
2026-05-01 15:04 36.94827 -11.59151 34117 ft 514 kts 41°
2026-05-01 15:05 36.99878 -11.52825 34132 ft 514 kts 41°
2026-05-01 15:05 37.04932 -11.46485 34115 ft 515 kts 41°
2026-05-01 15:06 37.09990 -11.40130 34124 ft 515 kts 41°
2026-05-01 15:06 37.15042 -11.33769 34131 ft 515 kts 41°
2026-05-01 15:07 37.20054 -11.27439 34142 ft 515 kts 41°
2026-05-01 15:07 37.25099 -11.21060 34145 ft 515 kts 41°
2026-05-01 15:08 37.30147 -11.14668 34120 ft 516 kts 41°
2026-05-01 15:08 37.35189 -11.08262 34169 ft 515 kts 41°
2026-05-01 15:09 37.40221 -11.01859 34159 ft 515 kts 41°
2026-05-01 15:09 37.45256 -10.95444 34162 ft 515 kts 41°
2026-05-01 15:10 37.50287 -10.89018 34135 ft 516 kts 41°
2026-05-01 15:10 37.57831 -10.79352 34162 ft 515 kts 41°
2026-05-01 15:11 37.65358 -10.69687 34129 ft 515 kts 41°
2026-05-01 15:12 37.70381 -10.63218 34096 ft 516 kts 41°
2026-05-01 15:12 37.77905 -10.53503 34108 ft 516 kts 41°
2026-05-01 15:14 37.90621 -10.37544 34095 ft 514 kts 37°
2026-05-01 15:14 37.98472 -10.28285 34158 ft 514 kts 38°
2026-05-01 15:15 38.08648 -10.15416 34097 ft 517 kts 41°
2026-05-01 15:16 38.18950 -10.02598 34100 ft 520 kts 41°
2026-05-01 15:18 38.31772 -9.86432 34193 ft 520 kts 41°
2026-05-01 15:19 38.41865 -9.73663 34189 ft 520 kts 41°
2026-05-01 15:19 38.49552 -9.63914 34163 ft 519 kts 41°
2026-05-01 15:20 38.57225 -9.54143 34107 ft 519 kts 41°
2026-05-01 15:21 38.62332 -9.47624 34094 ft 519 kts 41°
2026-05-01 15:21 38.67429 -9.41106 34101 ft 518 kts 41°
2026-05-01 15:22 38.75070 -9.31301 34097 ft 518 kts 41°
2026-05-01 15:22 38.80160 -9.24755 34104 ft 518 kts 41°
2026-05-01 15:23 38.85246 -9.18201 34124 ft 518 kts 41°
2026-05-01 15:23 38.90319 -9.11648 34158 ft 517 kts 41°
2026-05-01 15:24 38.95353 -9.05130 34154 ft 518 kts 41°
2026-05-01 15:24 39.00422 -8.98555 34155 ft 518 kts 41°
2026-05-01 15:25 39.04666 -8.93039 34157 ft 518 kts 41°
2026-05-01 15:25 39.09723 -8.86455 34189 ft 517 kts 41°
2026-05-01 15:26 39.14770 -8.79864 34171 ft 517 kts 41°
2026-05-01 15:26 39.19783 -8.73306 34160 ft 517 kts 41°
2026-05-01 15:27 39.24825 -8.66697 34142 ft 517 kts 41°
2026-05-01 15:28 39.32374 -8.56776 34188 ft 516 kts 41°
2026-05-01 15:28 39.37392 -8.50158 34150 ft 516 kts 41°
2026-05-01 15:29 39.44921 -8.40212 34095 ft 516 kts 41°
2026-05-01 15:30 39.54934 -8.26922 34100 ft 516 kts 41°
2026-05-01 15:31 39.69956 -8.06880 34183 ft 516 kts 41°
2026-05-01 15:32 39.79943 -7.93487 34179 ft 516 kts 41°
2026-05-01 15:34 39.94874 -7.73344 34090 ft 515 kts 41°